Regional Weather Roundup
Issued by NWS

Home | Current Version | Previous Version | Graphics & Text | Print | Product List | Glossary On
Versions: 1 2 3 4 5 6 7 8 9 10 11 12 13 14 15 16 17 18 19 20 21 22 23 24 25 26 27 28 29 30 31 32 33 34 35 36 37 38 39 40 41 42 43 44 45 46 47 48 49 50
000
ASUS45 KTFX 281904
RWRMT
MONTANA HOURLY WEATHER ROUNDUP
NATIONAL WEATHER SERVICE GREAT FALLS MT
1204 PM MST FRI NOV 28 2014

NOTE: "FAIR" INDICATES FEW OR NO CLOUDS BELOW 12000 FEET WITH NO
SIGNIFICANT WEATHER AND/OR OBSTRUCTIONS TO VISIBILITY.

* THESE STATIONS ARE NOT UNDER NWS QUALITY CONTROL. THEY DO NOT
   REPORT WEATHER SUCH AS PRECIPITATION OR FOG.

MTZ001>007-043-282000-
WEST OF THE DIVIDE
CITY           SKY/WX    TMP DP  RH WIND       PRES   REMARKS
KALISPELL      CLOUDY    46  39  77 S7        29.44F
MISSOULA       CLOUDY    46  41  83 E7        29.60F
BUTTE          CLOUDY    43  28  56 S17       29.68F
MULLAN PASS    LGT RAIN  36  36 100 SW17G32   29.51F VSB M1/4 WCI  26
* ESSEX        N/A       41  38  89 SE6G14     N/A
* LINCOLN      N/A       43  35  73 W4G14      N/A
* LOOKOUT PASS N/A       42  38  86 SE11G29    N/A
* POLSON       N/A       46  37  71 SW3G10     N/A
* RONAN APT    CLOUDY    50  37  61 SE15G24    N/A
* SEELEY LAKE  N/A       45  36  71 S9G15      N/A
* THOMP F APT  CLOUDY    38  24  57 NE3G8      N/A
* YAAK HILL    N/A       47  42  83 SE1        N/A
$$

MTZ008-052>055-282000-
SOUTHWEST MONTANA
CITY           SKY/WX    TMP DP  RH WIND       PRES   REMARKS
BOZEMAN        CLOUDY    54  25  33 SW18G28   29.64F
DILLON         CLOUDY    55  25  31 SW30G40   29.68F
* W YELLOWSTON CLOUDY    38  24  57 SW7G21     N/A   WCI  33
* ENNIS APT    CLOUDY    52  21  30 S17G26     N/A
* THREE FORKS  CLOUDY    55  46  72 S6         N/A
* BOULDER HILL N/A       45  24  44 S20G27     N/A
* MONIDA PASS  N/A       36  25  64 SE16       N/A   WCI  26
* RAYNOLDS PAS N/A       38  21  50 SE17       N/A   WCI  29
* WHITEHALL    N/A       52  24  34 SW16G28    N/A
* WISE RIVER   N/A       41  32  70 W13G27     N/A
$$

MTZ009>010-012-014-046-048-049-054-282000-
EAST SLOPES AND CENTRAL MONTANA
CITY           SKY/WX    TMP DP  RH WIND       PRES   REMARKS
CUT BANK       LGT SNOW  12   9  88 N26       29.48S VSB 2 1/2 WCI  -8
GREAT FALLS    PTCLDY    54  34  47 SW31G44   29.43F
HELENA         CLOUDY    48  36  63 NE14      29.56F
MALMSTROM AFB  PTCLDY    55  34  45 SW35G48   29.46F
* DEARBORN     N/A       52  34  50 S18G36     N/A
* EAST GLACIER N/A       38  35  89 W20G27     N/A   WCI  28
* MONARCH      N/A       47  23  39 SW22G28    N/A
* PENDROY      N/A       49  34  56 SW26G34    N/A
* ROGERS PASS  N/A       39  33  79 SE12G20    N/A   WCI  32
* SAINT MARY   N/A       12   9  88 NE9G19     N/A
* SWEET GRASS  N/A        5   4  96 VRB17      N/A   WCI -14
$$

MTZ011-013-016-021-035-040-045-047-050-051-282000-
NORTH CENTRAL MONTANA
CITY           SKY/WX    TMP DP  RH WIND       PRES   REMARKS
HAVRE          CLOUDY    21  19  92 NW18G26   29.50R WCI   6
LEWISTOWN      SUNNY     55  30  39 W26G39    29.49F
* N BAR RANCH  SUNNY     55  30  39 SW24G35   29.50F
* CHESTER      N/A       26  22  85 NE7        N/A   WCI  18
* DENTON       N/A       58  33  39 SW22G30    N/A
* GEYSER       N/A       54  27  35 SW32G45    N/A
* JUDITH GAP   N/A       50  27  41 SW35G48    N/A
* LOMA         N/A       57  36  46 SW20G35    N/A
$$

MTZ017>020-022>027-061-062-282000-
NORTHEAST MONTANA
CITY           SKY/WX    TMP DP  RH WIND       PRES   REMARKS
GLASGOW        FOG       25  21  85 E15       29.44F WCI  13
GLENDIVE       CLOUDY    34  28  79 S5        29.51F WCI  29
JORDAN         PTCLDY    55  36  49 S10       29.45F
SIDNEY         PTCLDY    28  25  89 CALM      29.54F
WOLF POINT     FOG       25  21  85 E9        29.51F WCI  16
* BEAVER HILL  N/A       46  32  58 S16        N/A
* CIRCLE       N/A       44  37  76 SW6        N/A
* LINDSAY DVD  N/A       48  34  59 SW15       N/A
* NAVAJO       N/A       17  15  92 SE8        N/A   WCI   7
* SACO         N/A       27  24  88 E9         N/A   WCI  18
$$

MTZ028>042-056>058-282000-
SOUTHCENTRAL AND SOUTHEAST MONTANA
CITY           SKY/WX    TMP DP  RH WIND       PRES   REMARKS
BAKER          CLOUDY    48  32  54 CALM      29.54F
BILLINGS       PTSUNNY   57  28  33 SW8       29.58F
LIVINGSTON     CLOUDY    55  19  24 SW37G51   29.58F
MILES CITY     CLOUDY    45  36  71 SE8       29.52F
* LAUREL APT   PTSUNNY   52  28  40 N/A        N/A
* ALZADA       N/A       52  31  45 NW2        N/A
* HYSHAM       N/A       54  22  29 W4G9       N/A
* LAME DEER    N/A       53  26  35 SW10       N/A
* REED POINT   N/A       59  28  31 W12G22     N/A
* ROSCOE HILL  N/A       54  10  17 SW14G30    N/A
$$

REGIONAL REPORTS...DAKOTAS
CITY           SKY/WX    TMP DP  RH WIND       PRES   REMARKS
WILLISTON      CLOUDY    21  16  81 SE7       29.56F WCI  12
DICKINSON      PTSUNNY   36  27  70 SE8       29.53F WCI  30
BEACH          PTSUNNY   46  32  58 SW9       29.52F
CROSBY         CLOUDY    14  10  84 SE15      29.59F WCI  -1
BISMARCK       PTCLDY    19  12  74 E12       29.70F WCI   6
GRAND FORKS    CLOUDY    16   9  74 SE8       29.86F WCI   5
FARGO          CLOUDY    16   9  74 E9        29.84F WCI   5
BUFFALO SD     CLOUDY    52  32  47 W14       29.54F
RAPID CITY     PTCLDY    57  36  46 SE6       29.63F
$$

REGIONAL REPORTS...WYOMING/IDAHO/WASHINGTON
CITY           SKY/WX    TMP DP  RH WIND       PRES   REMARKS
GILLETTE       PTCLDY    55  27  34 SW20G28   29.65F
SHERIDAN       CLOUDY    61  19  20 W22G39    29.59F
CODY           PTSUNNY   57  18  22 SW36G56   29.60F
YELLOWSTONE LA CLOUDY    37  18  46 W10G24    29.89F WCI  30
SALMON         CLOUDY    54  27  35 SW17G23   29.70F
MULLAN PASS    LGT RAIN  36  36 100 SW17G32   29.51S VSB M1/4 WCI  26
SAND POINT     CLOUDY    52  41  66 SW15G25   29.43F
SPOKANE        PTSUNNY   52  43  72 SW25G36   29.45F
$$

REGIONAL REPORTS...SASKATCHEWAN
CITY           SKY/WX    TMP DP  RH WIND       PRES   REMARKS
SWIFT CURRENT  FOG       21  19  92 SW12      29.42F VSB 1 1/2 WCI   9

$$




USA.gov is the U.S. government's official web portal to all federal, state and local government web resources and services.